Location: Stoke Bliss
(52.2667°N, 2.5167°W)
Time: 21:28:01
(UTC+00:00)

H-2A R/B - Pass Details

Date: 03 March 2021
Orbit: 577 x 654 km, 98.5° (Epoch: 15 April)

Event Time Altitude Azimuth Distance (km) Brightness Sun altitude
Rises 18:29:53 0° 11° (NNE) 2,813 5.3 -6.4°
Reaches altitude 10° 18:32:05 10° 7° (N) 1,906 4.5 -6.7°
Maximum altitude 18:36:05 53° 291° (WNW) 720 2.9 -7.3°
Drops below altitude 10° 18:40:04 10° 215° (SW) 1,895 5.1 -7.9°
Sets 18:42:15 0° 210° (SSW) 2,796 5.9 -8.3°
